Aérodrome :
LOGIN :

S'inscrire | Disclaimer

   EN    FR    IT 

 










Légende :    VFR   VFR Marginal   IFR   IFR Intensif   IFR Très Intensif
Visi : 
Plafond : 
>= 8 km
>= 3000ft
5 à 8 km
1000 à 3000 ft
1500m à 5 km
500 à 1000 ft
800 à 1500m
200 à 500 ft
< 800m
< 200 ft
Symboles :   Orages  Brouillard  Fortes neiges  Fortes précipitations  Vent > 20 kt
SIGMETs :   Divers  Orages  Givrage  Turbulence  Onde Orograph.  Cendres Volcan.






- Altitude de l'aérodrome : 1460 ft


LSMA - Alpnach

DERNIER METAR :
  • 200720Z 00000KT 2700 -SHRA BR FEW007 OVC055 01/00 Q1027 RMK YLO

METARs EXPIRÉS :
  • 200650Z 00000KT 3400 BR BKN004 OVC053 01/M00 Q1027 RMK YLO
  • 200620Z AUTO 00000KT 3400NDV -SHRA BR OVC045 01/00 Q1027 RMK
  • 200550Z AUTO VRB02KT 2600NDV BR BKN055 OVC065 01/00 Q1027 RMK
  • 200520Z AUTO 21003KT 2600NDV -RA BR FEW014 OVC069 01/00 Q1027 RMK
  • 200450Z AUTO VRB02KT 3300NDV -RA BR FEW007 BKN023 01/00 Q1027 RMK

Prévision TAF périmée.



MET'MAP, la Météo Aéronautique d'un coup d'oeil ! - Copyright ORBIFLY Décembre 2007 - Disclaimer

ORBIFLY MET'MAP TEAM :

Programmation & Développement : Alexandra Zaïnal
Sur une idée originale de : Baudouin d'Aumeries
Assistance à la programmation : Marc-Olivier Méhu
Soutien technique & logistique : Manuel Goepfert

Contact : metmap@orbifly.com




SOURCES & CREDITS :

   NOAA